Location: Northcutt
(34.7304°N, 84.4305°W)
Time: 04:12:51
(UTC+00:00)

Vanguard 2 - Pass Details

Date: 10 October 2022
Orbit: 553 x 2933 km, 32.9° (Epoch: 05 December)

Event Time Altitude Azimuth Distance (km) Brightness Sun altitude
Rises 18:47:48 0° 271° (W) 4,279 11.6 44.0°
Reaches altitude 10° 18:50:12 10° 270° (W) 3,560 11.4 43.8°
Maximum altitude 18:59:56 82° 185° (S) 2,060 10.7 42.7°
Drops below altitude 10° 19:15:49 10° 100° (E) 5,514 11.8 40.8°
Sets 19:20:33 0° 100° (E) 6,688 12.1 40.2°
